OBJECT D, 59776

Orbit data source: Space-Track

You're viewing an Uncataloged Satellite

Recently launched and/or uncataloged satellites may have evolving metadata. Metadata may include but not limited to: Owner, Maufacturer, Bus, Motor, and Mission.

OBJECT D, 59776 is a satellite owned by Sitronics (CIS) in SSO that was launched on Thu, 16 May 2024 UTC via a SOYUZ-2-1B launch vehicle from the Plesetsk Missile And Space Complex (PKMTR). Unknown objects in Earth's orbit typically refer to objects detected orbiting the Earth but have not yet been identified or cataloged. These objects could be anything from previously untracked satellites, spent rocket stages, debris from satellite collisions, or even natural meteoroids temporarily captured by Earth's gravity.

Loading next visibility...
Identifier
59776, 2024-092D
Orbit
SSO
Last TLE update
1 day ago
Origin
Manufacturer
Sputniks
Mission
Operational spacecraft
Bus & Motor
CUBESAT 3U?, Unknown motor
Mass
3 kg wet, 3 kg dry
Launch date (UTC)
2024-05-16 (1 year ago)
Launch vehicle
SOYUZ-2-1B
Launch site
Plesetsk Missile And Space Complex (PKMTR)
Object type
Unknown
Shape & HBR
Unknown
Radar Cross Section
Small (<0.1 m²)

Expand to show TLE details & history

TLE from 1 day ago
0 OBJECT D
1 59776U 24092D   25128.27619073  .00013773  00000-0  61110-3 0  9997
2 59776  97.6172 246.0506 0011111 133.2895 226.9269 15.21644882 53899
Epoch: 2025-05-08T06:37Z
Definitive object data (Epoch: 2025-05-08T06:37:42.879Z)
Latitude
-0°
Longitude
-79.72707°
Altitude
509.191 km
Speed
7.606 km/s
True Right ascension
16h 24m 12s
True Declination
0° 00' 00"
Sunlit
Object was in full shadow at TLE epoch
Visualization TLE readout
Latitude
31.81035°
Longitude
106.03044°
Altitude
497.718 km
Speed
7.623 km/s
Apparent Right ascension
04h 01m 06s
Apparent Declination
-2° 32' 38"
Sunlit
Object is in daylight
Visualization observer readout
Local Sidereal Time
15:05:53
Azimuth
337.946° N
Elevation
-50.585°
Doppler factor
1
Orbital elements
Apogee altitude
505.491 km
Perigee altitude
490.212 km
Semi-major axis
6,875.989 km
Eccentricity
0.0011111
Inclination
97.6172°
RAAN
246.0506°
Arg. of periapsis
133.2895°
True anomaly
226.83398°
Mean anomaly
226.9269°
Eccentric anomaly
226.88043°
Mean motion
3.80663 °/min
BSTAR
0.0006111
Orbital period
94.57 mins
Loading maneuver chart data...
Loading SW <> Apogee altitude chart data...
Loading historical data...
Loading historical data...
Loading historical data...
Loading historical data...
Loading historical data...
Loading historical data...
Loading historical data...

OBJECT D Visibility forecast

Observer location: undefined°, undefined°

Span
Click to sort rows by Start time (UTC) header in descending order
Start Az.
Max El. time (UTC)
Max El. Az.
Max El.
End time (UTC)
End Az.
6 mins2025-05-09 07:59:58.044Z176.174° S2025-05-09 08:02:58.044Z223.216° SW41.383°2025-05-09 08:05:58.044Z339.262° N
6 mins2025-05-09 21:03:58.044Z355.231° N2025-05-09 21:06:58.044Z274.748° WNW34.646°2025-05-09 21:09:58.044Z214.606° SW
|